Location: Caltech
(34.1382°N, 118.1253°W)
Time: 10:17:23
(UTC-07:00)

CZ-4B DEB - Visible Passes

Search period start: 20 June 2018 00:00
Search period end: 30 June 2018 00:00
Orbit: 840 x 863 km, 99.0° (Epoch: 19 June)

Date Brightness Start Highest point End Pass type
(mag) Time Alt. Az. Time Alt. Az. Time Alt. Az.
20 Jun 4.9 04:57:20 10° NNE 05:02:42 55° ESE 05:08:03 10° S visible
21 Jun 5.4 04:45:55 10° NNE 04:51:06 42° E 04:56:15 10° S visible
22 Jun 5.8 04:34:36 10° NE 04:39:29 33° E 04:44:21 10° SSE visible
23 Jun 6.2 04:23:23 10° NE 04:27:51 25° E 04:32:18 10° SSE visible
24 Jun 6.6 04:12:20 10° NE 04:16:12 19° E 04:20:04 10° SE visible
25 Jun 6.7 04:01:32 10° ENE 04:04:32 15° E 04:07:31 10° SE visible
26 Jun 7.0 03:51:29 10° ENE 03:52:51 11° E 03:54:11 10° ESE visible
28 Jun 4.7 05:05:25 10° NNE 05:10:52 66° ESE 05:16:20 10° S visible
29 Jun 5.1 04:53:57 10° NNE 04:59:17 50° E 05:04:37 10° S visible
